Location: Banios
(43.0451°N, 0.2335°E)
Time: 13:51:33
(UTC+00:00)

SKYMED 2 - Pass Details

Date: 25 January 2021
Orbit: 621 x 623 km, 97.9° (Epoch: 26 February)

Event Time Altitude Azimuth Distance (km) Brightness Sun altitude
Rises 05:16:02 0° 170° (S) 2,890 7.2 -22.7°
Reaches altitude 10° 05:18:13 10° 172° (S) 1,989 6.3 -22.3°
Maximum altitude 05:22:33 76° 258° (WSW) 649 3.4 -21.6°
Enters shadow 05:24:07 39° 335° (NNW) 947 4.2 -21.3°
